Torna al catalogo

STARLINK-31190

AttivoComunicazioniVLEO
NORAD 58897·PAYLOAD·🇺🇸 United States

Lanciato Jan 29, 2024 da Vandenberg Space Force Base

Loading…

Prossimi Passaggi (prossime 24 ore)

TLE

AggiornatoSource: CelesTrak SupGP

Epoca: Sep 14, 2026, 22:35 UTC

1 58897C 24020X   26257.94145833 -.00046993  00000+0 -15110-2 0  2573
2 58897  53.1585 162.0603 0001341  81.9904 320.3733 15.31728926    10

Traccia STARLINK-31190 in tempo reale con AllMySat

Download on the App Store